Preview of NWS' New Version of Forecast
This preview is not operational and should not be used for support decisions.

Regional Weather Roundup (RWR)

Issued by Gray - Portland, ME (GYX)

                            
000
ASUS41 KGYX 261410
RWRGYX
WEATHER ROUNDUP FOR MAINE AND NEW HAMPSHIRE
NATIONAL WEATHER SERVICE GRAY ME
1000 AM EDT TUE MAR 26 2019

MEZ002-005-006-010-012-015-018-020-021-024-026-027-029-261500-
MAINE
  
CITY           SKY/WX    TMP DP  RH WIND       PRES   REMARKS
PORTLAND       FAIR      33   5  30 NW15      30.27R                  
SANFORD        FAIR      35   4  27 NW8       30.26R                  
BAR HARBOR     FAIR      28   4  35 NW9G20    30.22R                  
WISCASSET      FAIR      32   4  30 VRB5G16   30.27R                  
ROCKLAND       FAIR      31   6  35 NW9       30.24R                  
FRYEBURG       FAIR      29   3  33 E3        30.25R                  
LEWISTONAUBURN FAIR      28   7  41 VRB6      30.26R                  
AUGUSTA        FAIR      28   4  35 VRB6      30.25R                  
WATERVILLE     FAIR      26   6  42 N7        30.22R                  
BANGOR         FAIR      27   5  39 N12       30.23S WCI  17          
GREENVILLE       N/A     16  -1  47 NW13      30.12R WCI   2          
MILLINOCKET    FAIR      21   2  43 NW8       30.22R                  
HOULTON        PTSUNNY   17   3  54 NW9       30.17R                  
PRESQUE ISLE   FAIR      15  -1  49 W13       30.17S WCI   1          
FRENCHVILLE    FAIR      12  -6  44 W16       30.11R WCI  -5          
CARIBOU        FAIR      14  -3  47 NW9       30.15R                  
$$

NHZ002-005-008-009-011-012-014-261500-
NEW HAMPSHIRE
  
CITY           SKY/WX    TMP DP  RH WIND       PRES   REMARKS
PORTSMOUTH     SUNNY     35   2  24 NW13      30.25R                  
ROCHESTER      FAIR      34   3  27 N8        30.24R                  
NASHUA         FAIR      34   2  25 NW14G21   30.28R                  
MANCHESTER     FAIR      34  -1  22 N13       30.26R                  
CONCORD        FAIR      32   3  29 N9G21     30.27R                  
LACONIA        FAIR      29   6  38 W8        30.25                   
PLYMOUTH       FAIR      28   4  35 NW9       30.27R                  
BERLIN         FAIR      23   4  44 NW10      30.22R WCI  12          
WHITEFIELD     FAIR      25   5  42 CALM      30.24R                  
JAFFREY        FAIR      30   2  30 MISG      30.23R                  
KEENE          FAIR      34   4  28 NW15      30.27R                  
LEBANON        FAIR      29   5  36 NW13      30.27R WCI  19          
MT WASHINGTON  MOSUNNY   -4  -8  84 NW49        N/A  WCI -37          
$$

VTZ005-007-008-261500-
VERMONT
  
CITY           SKY/WX    TMP DP  RH WIND       PRES   REMARKS
ST JOHNSBURY     N/A     24   5  44 MISG      30.27R                  
MONTPELIER     FAIR      22   5  48 N10       30.30R WCI  11          
BURLINGTON     FAIR      25   7  46 N8        30.35R                  
$$

MAZ007-012-024-CTZ003-RIZ002-NYZ038-NYZ072-261500-
SOUTHERN NEW ENGLAND AND NY
  
CITY           SKY/WX    TMP DP  RH WIND       PRES   REMARKS
BOSTON         FAIR      39  -1  18 N12       30.26R                  
WORCESTER      FAIR      32   2  27 NE9       30.21R                  
NANTUCKET      FAIR      40  14  34 NE18G28   30.20R                  
PROVIDENCE     FAIR      39   3  22 N17       30.25R                  
HARTFORD       FAIR      38   2  22 N21G28    30.27R                  
ALBANY         FAIR      35   6  29 NE9       30.34R                  
NEW YORK CITY  FAIR      39   3  22 NE15G24   30.26R                  
$$

ANZ081-ANZ082-ANZ150-NHZ014-MEZ023>029-261500-
COASTAL MARINE OBSERVATIONS
  
STATION/POSITION TIME  TEMP    WIND        PRES    WAVE
                       AIR SEA DIR/SP/G            HT/PER
                 (UTC) (F)     (DEG/KT/KT) (MB)    (FT/S)
MOUNT DESERT ROC 1300   29     320/ 19/ 21 1022.7R
MATINICUS ROCK   1300   30     350/ 18/ 21 1022.7R
ISLE OF SHOALS   1300   31     330/ 15/ 16 1023.7R
CASHES LEDGE BUO 1350   35 39              1024.0R   3/ 4
$$

.............KEY..............
   WCI - WIND CHILL
   TC  - TEMPERATURE IN CELSIUS
   VSB - VISIBILITY IN MILES
   HX  - HEAT INDEX
   FAIR- INDICATES FEW OR NO CLOUDS BELOW 12,000 FT, WITH NO 
         SIGNIFICANT WEATHER AND/OR OBSTRUCTIONS TO VISIBILITY.